sat.trackr.live / text

‹ back to catalog

STARLINK-36959

NORAD 68060 · 2026-041W

PAYLOAD ACTIVE UNKNOWN

§ Identity

Operator
Country
US
Launch date
2026-03-02
Launch site
AFETR
Launch vehicle
Mass (kg)
RCS (m²)

Purposes: comms

External: N2YO · Heavens-Above · Gunter

§ Orbital elements

Epoch: 2026-09-19T13:09:56.983680Z

Period
93.85 min
Inclination
53.1578°
Eccentricity
0.0000926
Mean motion
15.34401642 rev/d
Perigee alt
462.1 km
Apogee alt
463.3 km
Semi-major
6,840.8 km
B*
6.5289e-4
RAAN
224.1205°
Arg perigee
91.4078°
Mean anomaly
268.7031°
Rev number
3,114

§ Raw data

STARLINK-369591 68060U 26041W   26262.54857620  .00021748  00000+0  65289-3 0  99922 68060  53.1578 224.1205 0000926  91.4078 268.7031 15.34401642 31149

JSON: /api/v1/satellites/68060 · /tle

For live sub-satellite position, see the globe view (requires WebGL).

§ Visibility from observer

Set your observer location to see the next 7 days of passes ≥ 10°. The values pass through the URL so the page stays shareable.

No JS? Fill the form by hand. The geolocation button needs JavaScript.